Tracking 29747 objects as of 10-Oct-2024
HD Live streaming from Space Station
objects crossing your sky now

DELTA 1 DEB

Track DELTA 1 DEB now!
10-day predictions


NORAD ID: 10825
Int'l Code: 1976-077BV
Perigee: 1,501.9 km
Apogee: 1,570.3 km
Inclination: 102.2 °
Period: 116.6 minutes
Semi major axis: 7907 km
RCS: 0.2635 m2 (medium)
Launch date: July 29, 1976
Source: United States (US)
Launch site: AIR FORCE WESTERN TEST RANGE (AFWTR)

Note: This is SATELLITE DEBRIS
Your satellite tracking list
Your tracking list is empty




NASA's NSSDC Master Catalog

Two Line Element Set (TLE):
1 10825U 76077BV  24283.82249762  .00000022  00000-0  53546-3 0  9992
2 10825 102.1853 236.6098 0043256 243.7745 172.2137 12.34742960171329
Source of the keplerian elements: AFSPC